EW4931 Weather Reports


time (UTC)temp
C
wind
direction
speed
KPH
gust
KPH
rain 1hr
cm
rain 24hr
cm
rain mn
cm
humidity
%
barometer
mb
20260905012301 11 31 3.2 9.7 0.00 0.00 0.00 93 993.9
20260905011801 11 35 4.8 8.0 0.00 0.00 0.00 93 994.0
20260905011301 12 32 4.8 8.0 0.00 0.00 0.00 93 993.9
20260905011020 12 42 3.2 9.7 0.00 0.00 0.00 93 993.9
20260905010301 12 54 6.4 9.7 0.00 0.00 0.00 93 993.8
20260905005801 11 52 3.2 8.0 0.00 0.00 0.00 93 993.8
20260905005300 11 47 3.2 9.7 0.00 0.00 0.00 94 993.8
20260905005019 11 61 6.4 9.7 0.00 0.00 0.00 93 993.8
20260905004301 11 73 6.4 9.7 0.00 0.00 0.00 93 993.8
20260905003801 11 76 6.4 9.7 0.00 0.00 0.00 93 993.8
20260905003301 11 41 3.2 8.0 0.00 0.00 0.00 93 993.8
20260905002800 11 25 3.2 8.0 0.00 0.00 0.00 93 993.8
20260905002300 11 41 3.2 11.3 0.00 0.00 0.00 93 993.8
20260905001801 11 38 1.6 11.3 0.00 0.00 0.00 93 993.8
20260905001301 11 63 4.8 11.3 0.00 0.00 0.00 93 993.9
20260905001020 11 71 3.2 11.3 0.00 0.00 0.00 93 993.9
20260905000300 11 31 4.8 8.0 0.00 0.00 0.00 93 993.9
20260904235759 11 44 1.6 6.4 0.00 0.00 0.00 93 993.8
20260904235527 11 49 3.2 8.0 0.00 0.00 0.00 93 993.9
20260904234801 11 71 4.8 8.0 0.00 0.00 0.00 93 993.9
20260904234259 11 38 3.2 6.4 0.00 0.00 0.00 93 993.9
20260904233800 11 48 3.2 6.4 0.00 0.00 0.00 93 993.9
20260904233259 11 56 1.6 4.8 0.00 0.00 0.00 93 994.0
20260904232804 11 56 6.4 8.0 0.00 0.00 0.00 93 994.0
20260904232758 11 56 1.6 8.0 0.00 0.00 0.00 93 994.0
20260904231759 11 66 3.2 6.4 0.00 0.00 0.00 94 994.0
20260904231258 11 103 3.2 11.3 0.00 0.00 0.00 94 993.9
20260904230759 11 49 3.2 11.3 0.00 0.00 0.00 94 993.9
20260904230258 11 80 6.4 11.3 0.00 0.00 0.00 94 993.9
20260904225759 11 76 4.8 8.0 0.00 0.00 0.00 94 993.8
20260904225259 11 66 3.2 8.0 0.00 0.00 0.00 94 993.8
20260904224758 11 82 3.2 11.3 0.00 0.00 0.00 94 993.8
20260904224258 11 56 4.8 11.3 0.00 0.00 0.00 94 993.9
20260904224015 11 62 4.8 9.7 0.00 0.00 0.00 94 993.9
20260904223516 11 61 6.4 9.7 0.00 0.00 0.00 94 993.8
20260904222757 11 66 4.8 8.0 0.00 0.00 0.00 94 994.0
20260904222257 11 65 4.8 8.0 0.00 0.00 0.00 93 994.0
20260904221758 11 82 3.2 9.7 0.00 0.00 0.00 93 994.0
20260904221257 11 66 4.8 9.7 0.00 0.00 0.00 93 994.1
20260904220757 11 94 4.8 8.0 0.00 0.00 0.00 93 994.2
20260904220257 11 107 6.4 9.7 0.00 0.00 0.00 93 994.2
20260904215758 11 92 6.4 9.7 0.00 0.00 0.00 93 994.3
20260904215257 11 106 3.2 4.8 0.00 0.00 0.00 93 994.4
20260904214757 11 128 1.6 4.8 0.00 0.00 0.00 93 994.4
20260904214257 11 138 0.0 6.4 0.00 0.00 0.00 93 994.5
20260904213757 11 71 1.6 6.4 0.00 0.00 0.00 93 994.4
20260904213257 11 125 3.2 6.4 0.00 0.00 0.00 93 994.5
20260904212756 11 86 3.2 6.4 0.00 0.00 0.00 93 994.5
20260904212256 11 69 3.2 8.0 0.00 0.00 0.00 93 994.5
20260904211756 11 83 3.2 8.0 0.00 0.00 0.00 93 994.5
20260904211256 11 134 3.2 8.0 0.00 0.00 0.00 93 994.5
20260904210756 11 93 3.2 6.4 0.00 0.00 0.00 93 994.5
20260904210256 11 47 0.0 6.4 0.00 0.00 0.00 93 994.5
20260904210012 11 45 3.2 6.4 0.00 0.00 0.00 93 994.6
20260904205256 11 45 1.6 4.8 0.00 0.00 0.00 93 994.5
20260904204755 11 45 1.6 6.4 0.00 0.00 0.00 93 994.5
20260904204515 11 97 3.2 6.4 0.00 0.00 0.00 93 994.5
20260904203755 11 66 3.2 9.7 0.00 0.00 0.00 93 994.7
20260904203255 11 82 6.4 9.7 0.00 0.00 0.00 93 994.6
20260904202755 11 113 3.2 4.8 0.00 0.00 0.00 93 994.7
20260904202513 11 113 3.2 4.8 0.00 0.00 0.00 93 994.8
20260904201755 11 114 1.6 6.4 0.00 0.00 0.00 93 994.8
20260904201255 11 96 1.6 6.4 0.00 0.00 0.00 93 994.8
20260904200755 11 116 1.6 6.4 0.00 0.00 0.00 92 994.8
20260904200515 11 97 3.2 6.4 0.00 0.00 0.00 93 994.8
20260904195754 11 110 1.6 4.8 0.00 0.00 0.00 92 994.9
20260904195254 11 82 4.8 4.8 0.00 0.00 0.00 92 994.9
20260904194755 11 65 1.6 4.8 0.00 0.00 0.00 92 994.9
20260904194255 11 56 0.0 3.2 0.00 0.00 0.00 92 995.0
20260904193754 11 55 0.0 3.2 0.00 0.00 0.00 92 995.0
20260904193254 11 55 0.0 3.2 0.00 0.00 0.00 92 995.1
20260904192755 11 55 0.0 6.4 0.00 0.00 0.00 92 995.0
20260904192254 11 99 1.6 6.4 0.00 0.00 0.00 92 995.1
20260904191753 11 102 1.6 9.7 0.00 0.00 0.00 92 995.1
20260904191517 11 73 4.8 9.7 0.00 0.00 0.00 92 995.2
20260904190753 11 90 3.2 8.0 0.00 0.00 0.00 91 995.2
20260904190745 11 96 3.2 8.0 0.00 0.00 0.00 91 995.2
20260904190025 11 69 3.2 4.8 0.00 0.00 0.00 91 995.3
20260904185253 11 94 1.6 4.8 0.00 0.00 0.00 90 995.4
20260904184753 11 100 0.0 3.2 0.00 0.00 0.00 90 995.4
20260904184253 11 100 0.0 6.4 0.00 0.00 0.00 89 995.5
20260904183753 11 100 0.0 6.4 0.00 0.00 0.00 89 995.5
20260904183252 11 87 1.6 6.4 0.00 0.00 0.00 89 995.6
20260904183016 11 94 1.6 11.3 0.00 0.00 0.00 89 995.6
20260904182515 11 94 6.4 14.5 0.00 0.00 0.00 88 995.6
20260904181753 11 103 8.0 14.5 0.00 0.00 0.00 88 995.6
20260904181513 11 71 4.8 9.7 0.00 0.00 0.00 88 995.7
20260904180753 11 71 4.8 8.0 0.00 0.00 0.00 88 995.8
20260904180518 11 85 3.2 11.3 0.00 0.00 0.00 87 995.8
20260904180243 11 147 6.4 11.3 0.00 0.00 0.00 87 995.9
20260904175252 12 85 6.4 11.3 0.00 0.00 0.00 86 995.9
20260904175240 12 157 4.8 8.0 0.00 0.00 0.00 86 995.9
20260904174251 12 145 4.8 8.0 0.00 0.00 0.00 85 996.0
20260904174234 12 147 1.6 8.0 0.00 0.00 0.00 85 996.0
20260904173251 12 135 4.8 9.7 0.00 0.00 0.00 84 995.9
20260904173018 13 137 6.4 9.7 0.00 0.00 0.00 83 996.0
20260904172252 13 147 4.8 9.7 0.00 0.00 0.00 84 996.0
20260904171751 13 148 0.0 14.5 0.00 0.00 0.00 85 995.9
20260904171519 13 196 6.4 14.5 0.00 0.00 0.00 84 996.0
20260904171011 13 157 3.2 4.8 0.00 0.00 0.00 87 995.9
20260904170251 13 185 3.2 4.8 0.00 0.00 0.00 87 995.9
20260904165751 13 175 1.6 4.8 0.00 0.00 0.00 87 995.9
20260904165250 14 203 1.6 3.2 0.00 0.00 0.00 86 995.9
20260904164751 14 200 1.6 3.2 0.00 0.00 0.00 85 995.9
20260904164251 14 196 0.0 3.2 0.00 0.00 0.00 85 996.0
20260904164007 14 243 0.0 3.2 0.00 0.00 0.00 84 995.9
20260904163249 14 179 0.0 0.0 0.00 0.00 0.00 83 996.0
20260904162749 15 179 0.0 4.8 0.00 0.00 0.00 82 996.0
20260904162249 15 179 1.6 4.8 0.00 0.00 0.00 82 996.0
20260904161749 15 144 0.0 1.6 0.00 0.00 0.00 82 995.9
20260904161249 15 144 0.0 3.2 0.00 0.00 0.00 81 995.9
20260904160749 15 142 0.0 4.8 0.00 0.00 0.00 81 995.9
20260904160735 15 144 1.6 6.4 0.00 0.00 0.00 80 995.9
20260904155749 15 130 3.2 6.4 0.00 0.00 0.00 80 996.0
20260904155727 15 128 1.6 4.8 0.00 0.00 0.00 80 996.0
20260904155008 15 128 1.6 4.8 0.00 0.00 0.00 81 996.0
20260904154248 15 128 1.6 6.4 0.00 0.00 0.00 80 996.1
20260904154008 15 121 1.6 6.4 0.00 0.00 0.00 80 996.1
20260904153248 15 61 1.6 3.2 0.00 0.00 0.00 81 996.2
20260904152748 15 61 0.0 3.2 0.00 0.00 0.00 80 996.2
20260904152247 15 61 1.6 3.2 0.00 0.00 0.00 79 996.3
20260904152008 15 61 1.6 3.2 0.00 0.00 0.00 79 996.3
20260904151247 15 61 1.6 4.8 0.00 0.00 0.00 79 996.4
20260904150748 15 61 3.2 4.8 0.00 0.00 0.00 79 996.5
20260904150247 15 224 1.6 3.2 0.00 0.00 0.00 80 996.4
20260904145748 15 224 1.6 3.2 0.00 0.00 0.00 80 996.5
20260904145247 15 224 0.0 4.8 0.00 0.00 0.00 80 996.6
20260904144748 15 224 0.0 4.8 0.00 0.00 0.00 79 996.7
20260904144246 15 213 3.2 6.4 0.00 0.00 0.00 77 996.7
20260904143747 16 188 3.2 6.4 0.00 0.00 0.00 76 996.8
20260904143506 16 185 1.6 4.8 0.00 0.00 0.00 75 996.7
20260904142747 16 238 0.0 4.8 0.00 0.00 0.00 75 996.8
20260904142246 16 203 1.6 4.8 0.00 0.00 0.00 74 996.9
20260904141747 16 261 1.6 8.0 0.00 0.00 0.00 73 996.9
20260904141247 16 237 1.6 8.0 0.00 0.00 0.00 72 996.9
20260904140746 16 265 1.6 6.4 0.00 0.00 0.00 72 997.0
20260904140246 16 223 1.6 6.4 0.00 0.00 0.00 71 997.1
20260904135745 16 238 3.2 6.4 0.00 0.00 0.00 70 997.1
20260904135246 16 202 0.0 6.4 0.00 0.00 0.00 69 997.2
20260904134747 16 203 3.2 8.0 0.00 0.00 0.00 67 997.2
20260904134245 17 261 1.6 8.0 0.00 0.00 0.00 67 997.2
20260904133746 17 258 1.6 11.3 0.00 0.00 0.00 66 997.2
20260904133245 17 214 1.6 11.3 0.00 0.00 0.00 65 997.2
20260904132746 17 195 3.2 8.0 0.00 0.00 0.00 65 997.2
20260904132733 17 221 6.4 8.0 0.00 0.00 0.00 64 997.3
20260904131745 17 275 3.2 8.0 0.00 0.00 0.00 64 997.3
20260904131245 17 203 4.8 9.7 0.00 0.00 0.00 64 997.3
20260904130744 17 207 4.8 9.7 0.00 0.00 0.00 63 997.3
20260904130245 17 227 3.2 9.7 0.00 0.00 0.00 62 997.4
20260904125745 17 212 3.2 6.4 0.00 0.00 0.00 61 997.3
20260904125245 17 206 3.2 6.4 0.00 0.00 0.00 60 997.3
20260904125012 17 183 1.6 8.0 0.00 0.00 0.00 61 997.3
20260904124245 18 141 3.2 8.0 0.00 0.00 0.00 58 997.4
20260904124225 18 186 1.6 8.0 0.00 0.00 0.00 57 997.5
20260904123506 18 213 4.8 8.0 0.00 0.00 0.00 55 997.5
20260904122744 18 138 4.8 8.0 0.00 0.00 0.00 55 997.5
20260904122244 18 127 4.8 8.0 0.00 0.00 0.00 54 997.6
20260904121744 18 251 3.2 4.8 0.00 0.00 0.00 57 997.6
20260904121244 18 265 1.6 4.8 0.00 0.00 0.00 59 997.7
20260904120744 18 281 1.6 4.8 0.00 0.00 0.00 57 997.8
20260904120243 18 279 3.2 4.8 0.00 0.00 0.00 58 997.8
20260904115743 17 183 3.2 9.7 0.00 0.00 0.00 58 997.9
20260904115244 17 96 6.4 9.7 0.00 0.00 0.00 58 998.0
20260904114743 17 302 3.2 8.0 0.00 0.00 0.00 57 998.0
20260904114243 18 309 3.2 6.4 0.00 0.00 0.00 57 998.1
20260904113743 18 220 3.2 6.4 0.00 0.00 0.00 59 998.2
20260904113243 18 189 3.2 8.0 0.00 0.00 0.00 59 998.2
20260904112743 17 235 3.2 8.0 0.00 0.00 0.00 59 998.3
20260904112243 17 276 3.2 4.8 0.00 0.00 0.00 57 998.3
20260904112006 17 248 1.6 4.8 0.00 0.00 0.00 58 998.3
20260904111242 18 293 3.2 4.8 0.00 0.00 0.00 57 998.4
20260904110742 18 302 1.6 4.8 0.00 0.00 0.00 57 998.4
20260904110508 18 247 3.2 4.8 0.00 0.00 0.00 59 998.4
20260904105742 18 261 0.0 4.8 0.00 0.00 0.00 58 998.4
20260904105242 18 243 0.0 4.8 0.00 0.00 0.00 57 998.5
20260904104742 18 275 3.2 4.8 0.00 0.00 0.00 58 998.5
20260904104242 18 279 1.6 4.8 0.00 0.00 0.00 57 998.6
20260904103958 18 238 1.6 3.2 0.00 0.00 0.00 56 998.6
20260904103242 18 248 1.6 4.8 0.00 0.00 0.00 58 998.6
20260904102742 17 183 1.6 4.8 0.00 0.00 0.00 55 998.6
20260904102241 18 209 3.2 4.8 0.00 0.00 0.00 55 998.6
20260904101741 18 274 1.6 8.0 0.00 0.00 0.00 59 998.6
20260904101241 18 286 0.0 8.0 0.00 0.00 0.00 59 998.6
20260904100743 18 235 3.2 8.0 0.00 0.00 0.00 58 998.7
20260904100241 18 199 3.2 8.0 0.00 0.00 0.00 57 998.7
20260904095741 18 245 1.6 4.8 0.00 0.00 0.00 59 998.7
20260904095241 18 248 1.6 6.4 0.00 0.00 0.00 59 998.7
20260904094740 18 275 3.2 6.4 0.00 0.00 0.00 59 998.8
20260904094506 18 269 1.6 6.4 0.00 0.00 0.00 60 998.8
20260904093741 18 234 4.8 8.0 0.00 0.00 0.00 62 998.8
20260904093240 17 281 1.6 8.0 0.00 0.00 0.00 63 998.8
20260904092740 17 298 3.2 6.4 0.00 0.00 0.00 65 998.9
20260904092240 17 292 1.6 6.4 0.00 0.00 0.00 63 998.9
20260904091740 17 237 3.2 6.4 0.00 0.00 0.00 63 999.0
20260904091456 17 272 1.6 4.8 0.00 0.00 0.00 65 998.9
20260904090740 17 288 3.2 4.8 0.00 0.00 0.00 66 998.9
20260904090240 16 312 1.6 4.8 0.00 0.00 0.00 68 998.9
20260904085739 16 312 3.2 4.8 0.00 0.00 0.00 67 999.0
20260904085240 16 268 3.2 4.8 0.00 0.00 0.00 68 999.0
20260904084740 16 271 3.2 4.8 0.00 0.00 0.00 67 999.1
20260904084240 16 290 3.2 6.4 0.00 0.00 0.00 68 999.1
20260904083739 16 292 3.2 6.4 0.00 0.00 0.00 68 999.2
20260904083239 16 293 3.2 4.8 0.00 0.00 0.00 68 999.2
20260904082739 16 258 1.6 6.4 0.00 0.00 0.00 69 999.1
20260904082459 16 258 3.2 6.4 0.00 0.00 0.00 70 999.1
20260904081959 16 295 3.2 6.4 0.00 0.00 0.00 70 999.1
20260904081238 16 293 3.2 6.4 0.00 0.00 0.00 69 999.1
20260904080739 16 288 1.6 4.8 0.00 0.00 0.00 69 999.2
20260904080238 16 305 3.2 4.8 0.00 0.00 0.00 71 999.2
20260904075739 16 317 3.2 8.0 0.00 0.00 0.00 71 999.2
20260904075239 16 257 1.6 8.0 0.00 0.00 0.00 72 999.2
20260904074738 15 216 3.2 4.8 0.00 0.00 0.00 73 999.3
20260904074238 15 293 3.2 8.0 0.00 0.00 0.00 73 999.3
20260904073737 15 283 4.8 8.0 0.00 0.00 0.00 72 999.4
20260904073458 15 261 3.2 6.4 0.00 0.00 0.00 73 999.3
20260904072738 15 300 3.2 6.4 0.00 0.00 0.00 74 999.4
20260904072238 15 302 1.6 4.8 0.00 0.00 0.00 75 999.4
20260904071737 15 314 1.6 4.8 0.00 0.00 0.00 76 999.4
20260904071237 15 271 1.6 6.4 0.00 0.00 0.00 76 999.4
20260904070737 15 298 3.2 6.4 0.00 0.00 0.00 76 999.5
20260904070237 15 278 3.2 6.4 0.00 0.00 0.00 76 999.4
20260904065737 15 248 3.2 6.4 0.00 0.00 0.00 78 999.5
20260904065237 15 275 3.2 6.4 0.00 0.00 0.00 79 999.5
20260904064737 14 295 0.0 4.8 0.00 0.00 0.00 81 999.5
20260904064501 13 295 3.2 4.8 0.00 0.00 0.00 81 999.4
20260904063737 13 307 3.2 4.8 0.00 0.00 0.00 83 999.4
20260904063237 13 298 3.2 4.8 0.00 0.00 0.00 85 999.6
20260904062737 13 300 3.2 4.8 0.00 0.00 0.00 87 999.6
20260904062236 12 324 3.2 4.8 0.00 0.00 0.00 89 999.7
20260904061736 12 306 3.2 6.4 0.00 0.00 0.00 90 999.6
20260904061236 12 283 3.2 6.4 0.00 0.00 0.00 92 999.6
20260904060736 11 261 3.2 4.8 0.00 0.00 0.00 93 999.6
20260904060236 11 261 1.6 4.8 0.00 0.00 0.00 94 999.6
20260904055736 11 261 1.6 4.8 0.00 0.00 0.00 94 999.6
20260904055236 10 195 0.0 1.6 0.00 0.00 0.00 95 999.6
20260904054735 10 195 0.0 3.2 0.00 0.00 0.00 95 999.5
20260904054236 10 195 0.0 3.2 0.00 0.00 0.00 95 999.5
20260904053736 10 195 1.6 3.2 0.00 0.00 0.00 95 999.6
20260904053235 9 195 0.0 0.0 0.00 0.00 0.00 95 999.6
20260904052735 9 195 0.0 0.0 0.00 0.00 0.00 94 999.6
20260904052236 9 195 0.0 1.6 0.00 0.00 0.00 95 999.7
20260904051958 9 195 0.0 1.6 0.00 0.00 0.00 95 999.7
20260904051234 8 195 0.0 0.0 0.00 0.00 0.00 95 999.7
20260904050734 8 195 0.0 0.0 0.00 0.00 0.00 95 999.6
20260904050235 8 195 0.0 0.0 0.00 0.00 0.00 95 999.7
20260904045734 8 195 0.0 0.0 0.00 0.00 0.00 94 999.7
20260904045234 8 195 0.0 0.0 0.00 0.00 0.00 94 999.7
20260904044958 8 195 0.0 0.0 0.00 0.00 0.00 94 999.7
20260904044234 8 195 0.0 0.0 0.00 0.00 0.00 94 999.7
20260904043735 7 195 0.0 0.0 0.00 0.00 0.00 95 999.7
20260904043234 7 195 0.0 0.0 0.00 0.00 0.00 95 999.7
20260904042734 7 195 0.0 0.0 0.00 0.00 0.00 94 999.8
20260904042234 7 195 0.0 0.0 0.00 0.00 0.00 94 999.8
20260904041735 7 195 0.0 0.0 0.00 0.00 0.00 94 1000.0
20260904041234 7 192 0.0 0.0 0.00 0.00 0.00 94 1000.0
20260904040735 7 192 0.0 0.0 0.00 0.00 0.00 93 1000.0
20260904040233 7 192 0.0 0.0 0.00 0.00 0.00 93 1000.0
20260904035956 7 192 0.0 0.0 0.00 0.00 0.00 94 1000.0
20260904035234 7 192 0.0 0.0 0.00 0.00 0.00 94 1000.0
20260904034734 7 192 0.0 0.0 0.00 0.00 0.00 93 1000.0
20260904034233 7 192 0.0 0.0 0.00 0.00 0.00 94 999.9
20260904033953 7 192 0.0 0.0 0.00 0.00 0.00 93 1000.0
20260904033233 7 192 0.0 0.0 0.00 0.00 0.00 93 1000.0
20260904032732 7 192 0.0 0.0 0.00 0.00 0.00 93 1000.0
20260904032233 7 192 0.0 0.0 0.00 0.00 0.00 93 999.9
20260904031952 7 192 0.0 0.0 0.00 0.00 0.00 93 1000.0
20260904031233 7 192 0.0 0.0 0.00 0.00 0.00 93 1000.0
20260904030956 7 192 0.0 0.0 0.00 0.00 0.00 93 1000.1
20260904030232 7 192 0.0 0.0 0.00 0.00 0.00 93 1000.2
20260904025732 7 192 0.0 0.0 0.00 0.00 0.00 93 1000.2
20260904025232 7 192 0.0 0.0 0.00 0.00 0.00 93 1000.2
20260904024732 7 192 0.0 0.0 0.00 0.00 0.00 93 1000.3
20260904024233 7 192 0.0 0.0 0.00 0.00 0.00 93 1000.3
20260904023731 7 192 0.0 0.0 0.00 0.00 0.00 93 1000.3
20260904023232 7 192 0.0 0.0 0.00 0.00 0.00 93 1000.4
20260904022734 7 192 0.0 0.0 0.00 0.00 0.00 93 1000.4
20260904022232 7 192 0.0 0.0 0.00 0.00 0.00 93 1000.3
20260904021732 7 192 0.0 0.0 0.00 0.00 0.00 93 1000.4
20260904021233 7 192 0.0 0.0 0.00 0.00 0.00 93 1000.5
20260904020734 8 192 0.0 0.0 0.00 0.00 0.00 93 1000.6
20260904020231 8 192 0.0 0.0 0.00 0.00 0.00 93 1000.7
20260904015730 8 192 0.0 0.0 0.00 0.00 0.00 93 1000.7
20260904015452 8 192 0.0 0.0 0.00 0.00 0.00 93 1000.6
20260904014730 8 192 0.0 0.0 0.00 0.00 0.00 93 1000.7
20260904014230 8 192 0.0 0.0 0.00 0.00 0.00 93 1000.8
20260904013730 8 192 0.0 0.0 0.00 0.00 0.00 93 1000.8
20260904013230 8 192 0.0 0.0 0.00 0.00 0.00 92 1000.8
20260904012731 8 192 0.0 0.0 0.00 0.00 0.00 92 1000.8